DAL2393 KRDU-KBOS

Flight info

Callsign DAL2393
Flight time N/A
Altitude 39000
Route BEXGO5 BOUSY GEARS BBOBO Q22 RBV Q419 JFK ROBUC3
Aircraft A319/M-SDE3FGHIRWY/LB1

Departure

Time 2026-05-04 00:34
Airport Raleigh-Durham International Airport (KRDU)

Arrival

Time N/A
Airport Boston Logan International Airport (KBOS)
Time Latitude Longitude Altitude Speed Heading
2026-05-04 00:03 35.87914 -78.79083 410 ft 0 kts 327°
2026-05-04 00:22 35.87908 -78.79078 410 ft 4 kts 329°
2026-05-04 00:23 35.87884 -78.79064 412 ft 4 kts 352°
2026-05-04 00:23 35.87860 -78.79068 415 ft 3 kts 42°
2026-05-04 00:23 35.87857 -78.79071 415 ft 1 kts 45°
2026-05-04 00:26 35.87862 -78.79065 416 ft 3 kts 45°
2026-05-04 00:26 35.87886 -78.79034 421 ft 7 kts 45°
2026-05-04 00:27 35.87918 -78.78996 421 ft 6 kts 41°
2026-05-04 00:27 35.87961 -78.78961 416 ft 11 kts 25°
2026-05-04 00:27 35.88052 -78.79017 421 ft 18 kts 316°
2026-05-04 00:27 35.88060 -78.79026 422 ft 0 kts 317°
2026-05-04 00:28 35.88067 -78.79034 423 ft 3 kts 317°
2026-05-04 00:29 35.88081 -78.79049 425 ft 4 kts 320°
2026-05-04 00:29 35.88142 -78.79050 423 ft 16 kts 24°
2026-05-04 00:29 35.88168 -78.78937 418 ft 21 kts 127°
2026-05-04 00:29 35.88045 -78.78785 424 ft 27 kts 136°
2026-05-04 00:30 35.87901 -78.78612 422 ft 26 kts 135°
2026-05-04 00:30 35.87807 -78.78494 427 ft 4 kts 134°
2026-05-04 00:30 35.87771 -78.78449 430 ft 11 kts 135°
2026-05-04 00:30 35.87741 -78.78353 429 ft 15 kts 53°
2026-05-04 00:31 35.87826 -78.78245 423 ft 20 kts 45°
2026-05-04 00:31 35.87937 -78.78107 426 ft 19 kts 45°
2026-05-04 00:31 35.87951 -78.78090 425 ft 3 kts 45°
2026-05-04 00:31 35.87967 -78.78056 430 ft 6 kts 76°
2026-05-04 00:32 35.87966 -78.78042 431 ft 0 kts 96°
2026-05-04 00:32 35.87962 -78.78025 431 ft 4 kts 110°
2026-05-04 00:33 35.87926 -78.77985 431 ft 10 kts 143°
2026-05-04 00:33 35.87822 -78.78065 425 ft 43 kts 225°
2026-05-04 00:33 35.87363 -78.78628 435 ft 139 kts 225°
2026-05-04 00:34 35.86556 -78.79592 787 ft 180 kts 223°
2026-05-04 00:34 35.85673 -78.80702 1868 ft 177 kts 236°
2026-05-04 00:34 35.85285 -78.82155 2802 ft 190 kts 268°
2026-05-04 00:34 35.85733 -78.83778 3422 ft 219 kts 308°
2026-05-04 00:35 35.87115 -78.84766 4184 ft 245 kts 349°
2026-05-04 00:35 35.88758 -78.84488 5029 ft 239 kts 20°
2026-05-04 00:35 35.90188 -78.83390 5240 ft 249 kts 36°
2026-05-04 00:35 35.91518 -78.81967 5461 ft 255 kts 40°
2026-05-04 00:36 35.92817 -78.80470 5786 ft 256 kts 40°
2026-05-04 00:36 35.94129 -78.78980 6044 ft 257 kts 38°
2026-05-04 00:36 35.95462 -78.77520 6096 ft 255 kts 37°
2026-05-04 00:36 35.96811 -78.76096 6104 ft 256 kts 36°
2026-05-04 00:37 35.98183 -78.74688 6485 ft 252 kts 35°
2026-05-04 00:37 35.99472 -78.73377 7267 ft 228 kts 34°
2026-05-04 00:37 36.00631 -78.72200 8066 ft 202 kts 33°
2026-05-04 00:37 36.01630 -78.71185 8860 ft 169 kts 31°
2026-05-04 00:38 36.02511 -78.70298 9140 ft 167 kts 30°
2026-05-04 00:38 36.03446 -78.69383 9499 ft 166 kts 30°
2026-05-04 00:38 36.04349 -78.68488 10069 ft 172 kts 30°
2026-05-04 00:38 36.05301 -78.67553 10523 ft 177 kts 30°
2026-05-04 00:39 36.06271 -78.66593 11037 ft 180 kts 30°
2026-05-04 00:39 36.07250 -78.65618 11563 ft 182 kts 30°
2026-05-04 00:39 36.08246 -78.64623 12080 ft 185 kts 30°
2026-05-04 00:39 36.09254 -78.63614 12600 ft 188 kts 30°
2026-05-04 00:40 36.10276 -78.62594 13092 ft 190 kts 29°
2026-05-04 00:40 36.11312 -78.61565 13580 ft 193 kts 29°
2026-05-04 00:40 36.12363 -78.60517 14041 ft 196 kts 29°
2026-05-04 00:40 36.13429 -78.59450 14446 ft 198 kts 29°
2026-05-04 00:41 36.14503 -78.58374 14870 ft 200 kts 29°
2026-05-04 00:41 36.15588 -78.57290 15293 ft 201 kts 29°
2026-05-04 00:41 36.16667 -78.56213 15714 ft 203 kts 29°
2026-05-04 00:41 36.17770 -78.55110 16147 ft 205 kts 29°
2026-05-04 00:42 36.18896 -78.53977 16594 ft 206 kts 29°
2026-05-04 00:42 36.20000 -78.52866 17062 ft 208 kts 29°
2026-05-04 00:42 36.21125 -78.51733 17521 ft 210 kts 29°
2026-05-04 00:42 36.22263 -78.50587 17977 ft 211 kts 29°
2026-05-04 00:43 36.23408 -78.49434 18431 ft 213 kts 29°
2026-05-04 00:43 36.24564 -78.48271 18817 ft 215 kts 28°
2026-05-04 00:43 36.25731 -78.47098 19207 ft 217 kts 28°
2026-05-04 00:43 36.26909 -78.45916 19593 ft 219 kts 28°
2026-05-04 00:44 36.28099 -78.44719 19975 ft 222 kts 28°
2026-05-04 00:44 36.29304 -78.43509 20352 ft 224 kts 27°
2026-05-04 00:44 36.30519 -78.42286 20732 ft 226 kts 27°
2026-05-04 00:44 36.31707 -78.40960 21073 ft 240 kts 45°
2026-05-04 00:45 36.32343 -78.38992 21292 ft 252 kts 78°
2026-05-04 00:45 36.32457 -78.36878 21847 ft 239 kts 92°
2026-05-04 00:45 36.32295 -78.34804 22037 ft 248 kts 100°
2026-05-04 00:45 36.32087 -78.32632 22174 ft 256 kts 95°
2026-05-04 00:46 36.31978 -78.30477 22642 ft 246 kts 89°
2026-05-04 00:46 36.32135 -78.29076 22641 ft 252 kts 63°
2026-05-04 00:46 36.32872 -78.27078 22751 ft 253 kts 54°
2026-05-04 00:46 36.33676 -78.25251 23472 ft 233 kts 50°
2026-05-04 00:47 36.34543 -78.23515 23581 ft 246 kts 45°
2026-05-04 00:47 36.35568 -78.21762 23730 ft 249 kts 41°
2026-05-04 00:47 36.36623 -78.20154 24243 ft 233 kts 37°
2026-05-04 00:47 36.37721 -78.18676 24404 ft 237 kts 30°
2026-05-04 00:48 36.38994 -78.17329 24476 ft 240 kts 22°
2026-05-04 00:48 36.40330 -78.16212 24936 ft 223 kts 14°
2026-05-04 00:48 36.41669 -78.15333 25212 ft 216 kts
2026-05-04 00:48 36.43087 -78.14673 25271 ft 218 kts 359°
2026-05-04 00:49 36.44522 -78.14284 25572 ft 206 kts 350°
2026-05-04 00:49 36.46023 -78.14150 25462 ft 224 kts 346°
2026-05-04 00:49 36.47506 -78.14363 25782 ft 205 kts 324°
2026-05-04 00:49 36.48631 -78.15199 26317 ft 170 kts 303°
2026-05-04 00:50 36.49306 -78.16327 26657 ft 163 kts 286°
2026-05-04 00:50 36.49602 -78.17684 26843 ft 165 kts 278°
2026-05-04 00:50 36.49827 -78.19090 27161 ft 167 kts 278°
2026-05-04 00:50 36.50057 -78.20507 27497 ft 168 kts 278°
2026-05-04 00:51 36.50289 -78.21934 27831 ft 169 kts 278°
2026-05-04 00:51 36.50315 -78.23379 28152 ft 169 kts 263°
2026-05-04 00:51 36.50374 -78.24827 28383 ft 174 kts 293°
2026-05-04 00:51 36.51345 -78.25837 28585 ft 205 kts 331°
2026-05-04 00:52 36.52896 -78.25784 28723 ft 247 kts
2026-05-04 00:52 36.54462 -78.24563 28474 ft 290 kts 37°
2026-05-04 00:52 36.55880 -78.22714 28492 ft 293 kts 37°
2026-05-04 00:52 36.57188 -78.20864 28997 ft 279 kts 39°
2026-05-04 00:53 36.58432 -78.18993 28971 ft 287 kts 41°
2026-05-04 00:53 36.59709 -78.16994 28764 ft 300 kts 43°
2026-05-04 00:53 36.60953 -78.14934 29043 ft 292 kts 45°
2026-05-04 00:53 36.62103 -78.12892 29299 ft 288 kts 46°
2026-05-04 00:54 36.63219 -78.10803 29159 ft 299 kts 49°
2026-05-04 00:54 36.65423 -78.06317 29452 ft 297 kts 52°
2026-05-04 00:54 36.66412 -78.04095 29530 ft 299 kts 53°
2026-05-04 00:55 36.67406 -78.01819 29547 ft 297 kts 50°
2026-05-04 00:55 36.68509 -77.99677 29546 ft 297 kts 47°
2026-05-04 00:55 36.69618 -77.97454 29428 ft 306 kts 50°
2026-05-04 00:55 36.70684 -77.95187 29612 ft 301 kts 51°
2026-05-04 00:56 36.71671 -77.93007 29703 ft 302 kts 52°
2026-05-04 00:56 36.73696 -77.88328 29713 ft 307 kts 54°
2026-05-04 00:56 36.74663 -77.85969 29872 ft 305 kts 55°
2026-05-04 00:57 36.75601 -77.83593 29873 ft 308 kts 56°
2026-05-04 00:57 36.77430 -77.78716 29968 ft 309 kts 58°
2026-05-04 00:58 36.79143 -77.73779 30047 ft 313 kts 60°
2026-05-04 00:58 36.80762 -77.68730 30206 ft 312 kts 63°
2026-05-04 00:59 36.82301 -77.63637 30233 ft 313 kts 56°
2026-05-04 00:59 36.84324 -77.58882 30236 ft 317 kts 56°
2026-05-04 00:59 36.85450 -77.56529 30150 ft 313 kts 41°
2026-05-04 01:00 36.86783 -77.54355 30150 ft 313 kts 34°
2026-05-04 01:00 36.88402 -77.52689 30204 ft 291 kts 13°
2026-05-04 01:00 36.90171 -77.51526 30320 ft 287 kts 12°
2026-05-04 01:00 36.91946 -77.50399 30438 ft 287 kts 12°
2026-05-04 01:01 36.93731 -77.49281 30554 ft 287 kts 11°
2026-05-04 01:01 36.95522 -77.48170 30669 ft 288 kts 11°
2026-05-04 01:01 36.97314 -77.47057 30778 ft 288 kts 11°
2026-05-04 01:01 36.99114 -77.45939 30884 ft 289 kts 11°
2026-05-04 01:02 37.00917 -77.44817 30989 ft 290 kts 11°
2026-05-04 01:02 37.02724 -77.43694 31092 ft 290 kts 11°
2026-05-04 01:02 37.04535 -77.42567 31253 ft 291 kts 12°
2026-05-04 01:02 37.06349 -77.41431 31368 ft 291 kts 11°
2026-05-04 01:03 37.08164 -77.40292 31471 ft 292 kts 11°
2026-05-04 01:03 37.09986 -77.39190 31564 ft 289 kts
2026-05-04 01:03 37.11835 -77.38289 31657 ft 282 kts
2026-05-04 01:03 37.13696 -77.37492 31749 ft 283 kts
2026-05-04 01:04 37.15556 -77.36691 31843 ft 283 kts
2026-05-04 01:04 37.17423 -77.35888 31935 ft 284 kts
2026-05-04 01:04 37.19292 -77.35086 32025 ft 284 kts
2026-05-04 01:04 37.21164 -77.34280 32113 ft 285 kts
2026-05-04 01:05 37.23042 -77.33463 32190 ft 286 kts
2026-05-04 01:05 37.24924 -77.32641 32286 ft 287 kts
2026-05-04 01:05 37.26807 -77.31821 32362 ft 287 kts
2026-05-04 01:05 37.28697 -77.31001 32489 ft 287 kts
2026-05-04 01:06 37.30586 -77.30180 32568 ft 288 kts
2026-05-04 01:06 37.32479 -77.29358 32647 ft 288 kts
2026-05-04 01:06 37.34377 -77.28531 32725 ft 289 kts
2026-05-04 01:06 37.36335 -77.27718 31984 ft 315 kts 358°
2026-05-04 01:07 37.38576 -77.27232 31471 ft 328 kts 353°
2026-05-04 01:07 37.40765 -77.26866 32283 ft 307 kts 352°
2026-05-04 01:07 37.42886 -77.26462 32510 ft 314 kts 355°
2026-05-04 01:07 37.45055 -77.25887 32628 ft 322 kts 358°
2026-05-04 01:08 37.47258 -77.25199 32774 ft 330 kts
2026-05-04 01:08 37.49449 -77.24218 33043 ft 339 kts
2026-05-04 01:08 37.50152 -77.23824 33184 ft 342 kts 12°